Home > Weather > Mombasa > Past weeks

Flag for Kenya Past Weather in Mombasa, Kenya — Yesterday and Last 2 Weeks

Now
75 °F

Passing clouds.


Feels Like: 75 °F
Forecast: 71 / 82 °F
Wind: 9 mph from Southeast

Location: Mombasa Airport

Current Time: Jul 26, 2016 at 10:57:29 PM

Latest Report: Jul 26, 2016 at 9:00 PM


Visibility: N/A

Pressure: 29.98 "Hg

Humidity: 89%

Dew Point: 72 °F

Location of MombasaLocation

Past Weather in Mombasa — Graph

°F

Mombasa Temperature Yesterday

Maximum temperature yesterday: 84 °F (at 2:00 PM)
Minimum temperature yesterday: 72 °F (at 7:00 AM)
Average temperature yesterday: 77 °F

High & Low Weather Summary for the Past Weeks

 TemperatureHumidityPressure
High84 °F (Jul 20, 2:00 PM)100% (Jul 25, 2:00 AM)30.15 "Hg (Jul 25, 2:00 AM)
Low68 °F (Jul 14, 6:00 AM)48% (Jul 23, 2:00 PM)29.92 "Hg (Jul 24, 4:00 PM)
Average76 °F79%30.03 "Hg
* Reported Jul 11 9:00 PM — Jul 26 9:00 PM, Mombasa, Weather by CustomWeather, © 2016

Note: Actual official high and low records may vary slightly from our data, if they occured in-between our weather recording intervals... More about our weather records

Advertising

Mombasa Weather History for the Previous 24 Hours

Scroll right to see more
 ConditionsComfort  
Time TempWeatherWind HumidityBarometerVisibility
9:00 PM
Tue, Jul 26
75 °FPassing clouds.9 mph89%29.98 "HgN/A
8:00 PM77 °FPassing clouds.5 mph83%29.98 "HgN/A
7:00 PM77 °FPassing clouds.5 mph83%29.98 "HgN/A
6:00 PM79 °FScattered clouds.8 mph79%29.98 "HgN/A
5:00 PM81 °FPassing clouds.9 mph66%29.98 "HgN/A
4:00 PM82 °FScattered clouds.8 mph66%29.98 "HgN/A
3:00 PM82 °FPartly sunny.10 mph62%29.98 "HgN/A
2:00 PM82 °FPartly sunny.12 mph62%30.01 "HgN/A
1:00 PM82 °FPassing clouds.10 mph66%30.01 "HgN/A
12:00 PM82 °FScattered clouds.13 mph66%30.04 "HgN/A
11:00 AM81 °FPartly sunny.12 mph79%30.04 "HgN/A
10:00 AM81 °FPartly sunny.13 mph74%30.07 "HgN/A
9:00 AM77 °FScattered clouds.12 mph89%30.07 "HgN/A
8:00 AM73 °FScattered clouds.7 mph94%30.04 "HgN/A
5:00 AM72 °FPassing clouds.3 mph94%29.98 "HgN/A
4:00 AM72 °FPassing clouds.9 mph94%29.98 "HgN/A
3:00 AM73 °FPassing clouds.5 mph89%29.98 "HgN/A
2:00 AM72 °FPassing clouds.7 mph94%30.01 "HgN/A
1:00 AM72 °FPassing clouds.6 mph94%30.01 "HgN/A
12:00 AM72 °FPassing clouds.5 mph94%30.04 "HgN/A
11:00 PM
Mon, Jul 25
73 °FPassing clouds.5 mph89%30.04 "HgN/A
10:00 PM75 °FPassing clouds.3 mph83%30.04 "HgN/A
Weather by CustomWeather, © 2016

See weather overviewHow to use our weather pages